Hourly Data Report for December 31, 2015

SAINT JOHN A
NEW BRUNSWICK

45°18'58.000" N
65°53'24.000" W
108.80 m
8104901
71609
YSJ

Download Data

Hourly Data (December 2015)
Hourly Data Report for December 31, 2015
TIME
LST
Temp Definition
°C
Dew Point Definition
°C
Rel Hum Definition
%
Precip. Amount Definition
mm

Wind Dir Definition
10's deg

Wind Spd Definition
km/h
Visibility Definition
km
Stn Press Definition
kPa
Hmdx Definition


Wind Chill Definition


Weather Definition


00:00 0.4 -0.3 95   16 16 8.1 100.93     Snow
01:00 0.7 -0.2 94   14 21 16.1 100.63     Rain
02:00 0.9 0.0 94   17 13 24.1 100.71     Cloudy
03:00 1.1 0.1 93   17 16 24.1 100.69     LegendNANA
04:00 1.3 0.4 94   16 21 24.1 100.48     Rain
05:00 1.4 0.5 94   17 18 24.1 100.41     Rain
06:00 1.6 0.9 95   18 17 24.1 100.38     Rain
07:00 1.9 1.2 95   19 17 24.1 100.32     Rain
08:00 2.2 1.5 95   18 17 16.1 100.22     Rain
09:00 2.4 1.7 95   18 17 12.9 100.15     Rain
10:00 3.0 2.3 95   18 18 3.2 100.11     Rain, Fog
11:00 3.5 2.8 95   19 21 2.4 100.04     Rain, Fog
12:00 3.4 2.7 95   20 17 1.2 99.87     Rain, Fog
13:00 4.4 3.7 95   23 8 2.4 99.76     Rain, Fog
14:00 3.7 2.7 93   31 12 9.7 99.67     Fog
15:00 3.0 1.7 91   34 19 16.1 99.63     LegendNANA
16:00 2.6 1.0 89   33 11 24.1 99.58     LegendNANA
17:00 1.2 -0.1 91   31 11 24.1 99.63     Mostly Cloudy
18:00 0.1 -1.2 91   30 12 24.1 99.66     LegendNANA
19:00 0.4 -1.2 89   32 9 24.1 99.68     LegendNANA
20:00 0.5 -1.1 89   26 7 24.1 99.69     Mostly Cloudy
21:00 0.3 -1.2 90   27 10 24.1 99.69     LegendNANA
22:00 0.0 -1.1 92   28 11 24.1 99.70   -4 LegendNANA
23:00 0.1 -1.2 91   28 8 24.1 99.63     Cloudy

Notes on Data Quality.

Legend

  • E = Estimated
  • M = Missing
  • NA = Not Available*
  • [empty] = Indicates an unobserved value
Date modified: